[[{"header":{"parameterUnit":"m.s-1","parameterCategory":1,"la1":30.2991,"la2":30.254,"lo1":-89.0895,"lo2":-89.0444,"dy":0.0017,"dx":0.0017,"nx":28,"ny":28,"refTime":"2023-09-05T21:00:00:Z","depth":0,"parameterNumber":2,"parameterNumberName":"U-component_of_WINDS"},"data":[0,0,0,0,0,0,0,0,0,0,0,0,0,0,0,0,0,0,0,0,0,0,0,0,0,0,0,0,0,0,0,0,0,0,0,0,0,0,0,0,0,0,0,0,0,0,0,0,0,0,0,0,0,0,0,0,0,0,-2.4897,-2.4898,0,-2.4997,-2.4998,-2.5,-2.4988,-2.4987,-2.4985,-2.4984,-2.5083,-2.5087,-2.5091,0,0,0,0,0,0,0,0,0,0,0,0,0,-2.4691,-2.4695,-2.4896,-2.4898,-2.4899,-2.4997,-2.4998,-2.5,-2.4989,-2.4987,-2.4985,-2.4983,-2.5082,-2.5087,-2.5092,0,0,0,0,0,0,0,0,0,0,0,0,0,-2.4785,-2.4696,-2.4896,-2.4905,-2.4907,-2.4997,-2.4999,-2.5,-2.4989,-2.4987,-2.4984,-2.4982,-2.508,-2.5086,-2.5092,-2.5178,0,0,-2.5111,-2.5114,0,0,0,0,0,0,0,0,-2.4779,-2.4792,-2.4903,-2.4905,-2.4907,-2.4978,-2.4962,-2.506,-2.499,-2.4958,-2.4984,-2.4981,-2.505,-2.5058,-2.5082,-2.5183,-2.5187,-2.5112,-2.5116,-2.5118,-2.512,0,0,0,0,0,0,0,-2.4773,-2.4788,-2.4936,-2.4904,-2.4907,-2.4903,-2.4914,-2.4981,-2.5016,-2.4961,-2.496,-2.4972,-2.5051,-2.5076,-2.5085,-2.5189,-2.5112,-2.5117,-2.5121,-2.5123,-2.5363,-2.5366,0,0,0,0,0,0,-2.4765,-2.4783,-2.4933,-2.4939,-2.4836,-2.4909,-2.4921,-2.4958,-2.5015,-2.5022,-2.4974,-2.4971,-2.5067,-2.5077,-2.5088,-2.5191,-2.5118,-2.5124,-2.5128,-2.5361,-2.5364,-2.5367,0,0,0,0,0,0,-2.476,-2.4778,-2.4929,-2.4861,-2.488,-2.4915,-2.4956,-2.4961,-2.4987,-2.5026,-2.5031,-2.4994,-2.5066,-2.5079,-2.5156,-2.5195,-2.5127,-2.5132,-2.5358,-2.5362,-2.5365,-2.5399,0,0,0,0,0,0,-2.4755,-2.4777,-2.4811,-2.4862,-2.4883,-2.4996,-2.4959,-2.4964,-2.4998,-2.4995,-2.5046,-2.5052,-2.5065,-2.5147,-2.5162,-2.5202,-2.5137,-2.5354,-2.5359,-2.5364,-2.5394,-2.5403,-2.5411,0,0,0,0,0,-2.4747,-2.4815,-2.4812,-2.483,-2.4927,-2.4998,-2.5011,-2.5025,-2.5001,-2.5035,-2.506,-2.5051,-2.5188,-2.5155,-2.5172,-2.5214,-2.5352,-2.5358,-2.5364,-2.5391,-2.5402,-2.5411,0,0,0,0,0,0,-2.4766,-2.4822,-2.4819,-2.4906,-2.4948,-2.4996,-2.5039,-2.5036,-2.5085,-2.508,-2.5094,-2.5106,-2.5183,-2.5206,-2.5168,-2.53,-2.5267,-2.5276,-2.5281,-2.5292,-2.53,-2.5292,-2.5142,0,0,0,0,0,-2.4781,-2.4836,-2.4881,-2.4954,-2.4975,-2.5004,-2.5035,-2.5043,-2.5086,-2.5103,-2.5134,-2.5175,-2.5227,-2.5261,-2.5312,-2.5399,-2.5408,-2.5436,-2.5444,-2.5451,-2.5459,-2.5505,-2.5517,-2.5387,-2.5386,-2.5386,0,0,-2.4811,-2.4848,-2.4882,-2.4958,-2.4991,-2.5046,-2.5018,-2.5078,-2.5119,-2.5112,-2.5186,-2.521,-2.5256,-2.5338,-2.5376,-2.536,-2.5497,-2.5459,-2.5464,-2.5468,-2.5512,-2.5525,-2.5536,-2.5391,-2.539,-2.5389,0,0,-2.4894,-2.4929,-2.4992,-2.5026,-2.5077,-2.5096,-2.5111,-2.516,-2.5176,-2.5251,-2.5247,-2.5295,-2.5386,-2.5419,-2.5448,-2.5544,-2.5537,-2.556,-2.5603,-2.5648,-2.5658,-2.5667,-2.57,-2.5712,-2.5568,-2.5568,-2.5568,0,-2.4924,-2.5009,-2.5025,-2.5085,-2.5118,-2.5116,-2.518,-2.5212,-2.5276,-2.5298,-2.528,-2.5394,-2.5425,-2.5514,-2.5537,-2.5562,-2.5578,-2.5553,-2.5656,-2.5665,-2.5674,-2.5705,-2.5717,-2.557,-2.557,-2.557,-2.5569,0,-2.5043,-2.5101,-2.5146,-2.5209,-2.5248,-2.531,-2.5334,-2.5371,-2.5375,-2.5395,-2.5471,-2.5509,-2.5567,-2.5589,-2.5594,-2.5678,-2.5667,-2.5653,-2.5619,-2.5688,-2.5718,-2.573,-2.5573,-2.5573,-2.5572,-2.5571,0,0,-2.5139,-2.5211,-2.5227,-2.5255,-2.5312,-2.5356,-2.5418,-2.5475,-2.5506,-2.5551,-2.5601,-2.5678,-2.5665,-2.5698,-2.5706,-2.5746,-2.5818,-2.5727,-2.5728,-2.5741,-2.5912,-2.5921,-2.5935,-2.5815,-2.5817,-2.5819,-2.5907,0,-2.5226,-2.5335,-2.5352,-2.5447,-2.5501,-2.55,-2.5553,-2.5593,-2.5614,-2.5661,-2.5684,-2.5737,-2.5717,-2.5736,-2.5776,-2.5801,-2.5852,-2.5795,-2.586,-2.5862,-2.5846,-2.595,-2.596,-2.6042,-2.5919,-2.5921,-2.5923,0,-2.5341,-2.539,-2.5492,-2.554,-2.5563,-2.5611,-2.5664,-2.5711,-2.5755,-2.5767,-2.5804,-2.5808,-2.587,-2.5836,-2.5921,-2.5882,-2.591,-2.5926,-2.5929,-2.5934,-2.5895,-2.5956,-2.6069,-2.608,-2.5941,-2.594,-2.5938,0,-2.5399,-2.549,-2.5562,-2.5587,-2.5646,-2.5679,-2.5705,-2.5748,-2.5781,-2.5828,-2.5849,-2.5903,-2.5932,-2.5972,-2.599,-2.5964,-2.6073,-2.6041,-2.6084,-2.6083,-2.6105,-2.6103,-2.6221,-2.6126,-2.6126,-2.6126,-2.6126,0,-2.5493,-2.5555,-2.5589,-2.5633,-2.5702,-2.572,-2.5787,-2.5812,-2.585,-2.5898,-2.5901,-2.5945,-2.5967,-2.6015,-2.6029,-2.6096,-2.6109,-2.612,-2.6123,-2.6119,-2.6117,-2.6135,-2.6129,-2.6129,-2.6129,-2.6128,-2.6127,0,-2.5568,-2.5594,-2.5672,-2.5722,-2.5736,-2.5784,-2.5826,-2.5869,-2.589,-2.595,-2.5966,-2.5998,-2.6055,-2.6077,-2.6146,-2.6155,-2.6232,-2.6231,-2.6217,-2.6217,-2.6258,-2.6253,-2.6391,-2.6409,-2.6304,-2.6305,-2.6306,0,-2.5626,-2.5673,-2.5729,-2.5761,-2.5789,-2.5842,-2.5876,-2.5896,-2.5931,-2.5986,-2.6021,-2.6078,-2.6124,-2.6214,-2.6243,-2.6295,-2.6294,-2.6339,-2.6302,-2.6296,-2.6293,-2.6289,-2.6293,-2.6345,-2.6346,-2.6347,-2.6348,0,-2.5725,-2.5735,-2.5785,-2.584,-2.5881,-2.5925,-2.5967,-2.5994,-2.602,-2.6059,-2.6118,-2.6153,-2.6224,-2.628,-2.6334,-2.6359,-2.6357,-2.636,-2.6372,-2.6367,-2.6356,-2.6361,-2.6234,-2.6356,-2.6355,-2.6354,-2.6354,-2.6354,-2.5791,-2.5833,-2.5879,-2.5934,-2.5968,-2.6008,-2.605,-2.6077,-2.6126,-2.6185,-2.6194,-2.6256,-2.6299,-2.6372,-2.6399,-2.6447,-2.6435,-2.6454,-2.6458,-2.6462,-2.6464,-2.6351,-2.6457,-2.6457,-2.6457,-2.6457,-2.6457,0,-2.5889,-2.5918,-2.5969,-2.6029,-2.6072,-2.6069,-2.6116,-2.6151,-2.6206,-2.6247,-2.6293,-2.6359,-2.6413,-2.6447,-2.6501,-2.6533,-2.6533,-2.6546,-2.6543,-2.6548,-2.6472,-2.6455,-2.6545,-2.6545,-2.6545,-2.6545,-2.6545,-2.6545,-2.5944,-2.6014,-2.603,-2.6117,-2.6146,-2.6207,-2.6234,-2.627,-2.6303,-2.6377,-2.6422,-2.6444,-2.6482,-2.6539,-2.6588,-2.6596,-2.6615,-2.6629,-2.6636,-2.6563,-2.6554,-2.6545,-2.6529,-2.6633,-2.6633,-2.6708,-2.6709,-2.6709]},{"header":{"parameterUnit":"m.s-1","parameterCategory":1,"la1":30.2991,"la2":30.254,"lo1":-89.0895,"lo2":-89.0444,"dy":0.0017,"dx":0.0017,"nx":28,"ny":28,"refTime":"2023-09-05T21:00:00:Z","depth":0,"parameterNumber":3,"parameterNumberName":"V-component_of_WINDS"},"data":[0,0,0,0,0,0,0,0,0,0,0,0,0,0,0,0,0,0,0,0,0,0,0,0,0,0,0,0,0,0,0,0,0,0,0,0,0,0,0,0,0,0,0,0,0,0,0,0,0,0,0,0,0,0,0,0,0,0,0.5628,0.5629,0,0.5709,0.571,0.5711,0.5692,0.569,0.5689,0.5687,0.5772,0.5776,0.5779,0,0,0,0,0,0,0,0,0,0,0,0,0,0.5461,0.5464,0.5628,0.5629,0.563,0.5709,0.571,0.5711,0.5692,0.569,0.5688,0.5686,0.5771,0.5775,0.578,0,0,0,0,0,0,0,0,0,0,0,0,0,0.5537,0.5465,0.5628,0.563,0.5631,0.5709,0.571,0.5711,0.5692,0.569,0.5688,0.5686,0.5769,0.5775,0.578,0.5861,0,0,0.5797,0.58,0,0,0,0,0,0,0,0,0.5532,0.5543,0.5629,0.563,0.5631,0.5688,0.5682,0.5762,0.5693,0.5669,0.5687,0.5684,0.5746,0.5753,0.5774,0.5865,0.5869,0.5798,0.5801,0.5804,0.5805,0,0,0,0,0,0,0,0.5527,0.5539,0.566,0.563,0.5632,0.5628,0.5636,0.5697,0.572,0.5671,0.567,0.568,0.5746,0.5768,0.5776,0.587,0.5798,0.5803,0.5806,0.5808,0.6034,0.6037,0,0,0,0,0,0,0.552,0.5535,0.5658,0.5663,0.5575,0.5633,0.5642,0.5672,0.5719,0.5724,0.5682,0.5678,0.576,0.5769,0.5779,0.5877,0.5803,0.5809,0.5812,0.6032,0.6035,0.6038,0,0,0,0,0,0,0.5517,0.5531,0.5654,0.5599,0.5614,0.5638,0.5672,0.5675,0.5697,0.5727,0.5731,0.57,0.5759,0.5771,0.5841,0.588,0.5811,0.5816,0.6028,0.6033,0.6036,0.6075,0,0,0,0,0,0,0.5512,0.553,0.556,0.5599,0.5617,0.5715,0.5674,0.5678,0.5706,0.5703,0.5745,0.575,0.5758,0.5833,0.5847,0.5886,0.5821,0.6025,0.603,0.6035,0.6071,0.608,0.6088,0,0,0,0,0,0.5506,0.5568,0.5562,0.5577,0.5655,0.5717,0.5727,0.5734,0.5709,0.5741,0.576,0.5748,0.5874,0.584,0.5856,0.5898,0.6023,0.6029,0.6035,0.6067,0.6078,0.6088,0,0,0,0,0,0,0.5534,0.5573,0.5567,0.5643,0.5677,0.5714,0.5753,0.5746,0.5788,0.5783,0.5791,0.5801,0.5873,0.5892,0.5854,0.598,0.5945,0.5954,0.5964,0.5975,0.5984,0.5978,0.5825,0,0,0,0,0,0.5549,0.5595,0.5627,0.5692,0.5709,0.5728,0.5755,0.5758,0.5793,0.5808,0.5832,0.5868,0.5915,0.5946,0.5992,0.6074,0.6083,0.611,0.6119,0.6126,0.6134,0.618,0.6193,0.6057,0.6057,0.6057,0,0,0.558,0.5608,0.5636,0.5698,0.5724,0.5773,0.574,0.5793,0.5829,0.5816,0.5884,0.5903,0.5944,0.6021,0.6056,0.6039,0.6174,0.6134,0.6139,0.6143,0.6188,0.6201,0.6212,0.6061,0.6061,0.606,0,0,0.5662,0.5687,0.5744,0.5771,0.5811,0.5824,0.5838,0.5876,0.5888,0.5957,0.5948,0.5992,0.6074,0.6103,0.6129,0.6224,0.6215,0.6239,0.6285,0.633,0.634,0.635,0.6385,0.6397,0.6246,0.6247,0.6247,0,0.5696,0.5768,0.5774,0.5828,0.5856,0.5846,0.5905,0.5931,0.5984,0.6004,0.5985,0.6088,0.6114,0.6198,0.6222,0.6243,0.626,0.6234,0.6338,0.6348,0.6357,0.639,0.6403,0.6249,0.6249,0.6249,0.6248,0,0.5809,0.5859,0.59,0.5952,0.5984,0.604,0.6056,0.6089,0.6089,0.6104,0.6175,0.6207,0.6259,0.6279,0.628,0.6364,0.6353,0.6336,0.6301,0.6372,0.6404,0.6416,0.6253,0.6252,0.6251,0.6251,0,0,0.591,0.5964,0.5979,0.6003,0.6047,0.6087,0.6143,0.6194,0.6222,0.626,0.6308,0.6378,0.6363,0.6392,0.6396,0.6436,0.6511,0.6414,0.6415,0.6432,0.6607,0.662,0.6634,0.6505,0.6508,0.651,0.6604,0,0.5996,0.6094,0.6102,0.619,0.6237,0.623,0.6279,0.6312,0.6328,0.6372,0.639,0.644,0.6416,0.6433,0.6472,0.6493,0.6546,0.6487,0.6551,0.6554,0.6541,0.665,0.6664,0.6751,0.6616,0.6618,0.662,0,0.6109,0.615,0.6243,0.6282,0.6302,0.6346,0.6394,0.6435,0.6474,0.6483,0.6516,0.6516,0.6575,0.6538,0.6621,0.6581,0.6608,0.6623,0.6626,0.6632,0.6591,0.666,0.6778,0.6792,0.6639,0.6637,0.6636,0,0.6174,0.6253,0.6319,0.6339,0.6386,0.6417,0.6439,0.6474,0.6505,0.6547,0.6567,0.6616,0.6643,0.6681,0.6695,0.6667,0.6778,0.6742,0.6788,0.6788,0.6811,0.681,0.6936,0.6829,0.6828,0.6828,0.6828,0,0.627,0.6328,0.6349,0.6389,0.6454,0.6463,0.6528,0.6547,0.658,0.6625,0.6622,0.6665,0.668,0.6726,0.6737,0.6805,0.6817,0.6827,0.6829,0.6827,0.6826,0.6845,0.684,0.6832,0.6831,0.683,0.683,0,0.6353,0.6369,0.6441,0.648,0.6491,0.6537,0.6571,0.6611,0.6627,0.6685,0.6699,0.6724,0.6779,0.6796,0.6862,0.6869,0.6948,0.6945,0.6935,0.6936,0.6981,0.6977,0.7124,0.7145,0.7023,0.7024,0.7025,0,0.6413,0.6457,0.6501,0.653,0.6553,0.6601,0.6632,0.6644,0.6676,0.6724,0.6759,0.6813,0.6856,0.6943,0.6969,0.7019,0.7018,0.7066,0.7025,0.7022,0.7019,0.7017,0.7022,0.7073,0.7075,0.7076,0.7077,0,0.6518,0.6524,0.6568,0.6616,0.6653,0.6691,0.6728,0.6753,0.6771,0.6808,0.6863,0.6897,0.6964,0.7018,0.707,0.7093,0.7089,0.7089,0.7103,0.7101,0.7094,0.71,0.6956,0.7086,0.7085,0.7084,0.7084,0.7083,0.6592,0.6631,0.6668,0.6718,0.6747,0.6782,0.6822,0.6843,0.6889,0.6944,0.6948,0.7008,0.7048,0.7117,0.7143,0.7191,0.7177,0.7197,0.7202,0.7206,0.721,0.7086,0.7201,0.72,0.72,0.72,0.72,0,0.6697,0.6721,0.6767,0.6818,0.6858,0.685,0.6891,0.6925,0.6977,0.7014,0.7057,0.7121,0.7174,0.7204,0.7257,0.729,0.7289,0.7303,0.7301,0.7307,0.7219,0.7202,0.7303,0.7303,0.7303,0.7303,0.7303,0.7303,0.6757,0.6823,0.6834,0.6915,0.6939,0.6997,0.7021,0.7054,0.7083,0.7155,0.7198,0.7217,0.7252,0.7307,0.7356,0.7364,0.7384,0.74,0.7406,0.7323,0.7313,0.7303,0.7287,0.7404,0.7404,0.749,0.7491,0.7491]}]]